When you browse on this site, cookies collect data to enhance your experience and personalize the content and advertising you see.
Visit our Privacy Policy to learn more. By continuing to use the site, you agree to this use of cookies and data.
  • en France
  • Liste des pays
  • À 7 jours
  • Température de l'eau
  • Carte satellitaire
  • Carte météo
  • Widgets météo
  • user-avatar
    Se connecter

    Météo par heure à Razgrad

    Ce jour, 27 Mai, Lundi

    Heure Température Précipitation Vent Pression Humidité
    00:00 +17°C° 0 mm 2 m/s 742 mmHg 84%
    01:00 +16°C° 0 mm 2 m/s 742 mmHg 85%
    02:00 +16°C° 0 mm 2 m/s 741 mmHg 86%
    03:00 +16°C° 0 mm 2 m/s 742 mmHg 86%
    04:00 +16°C° 0 mm 2 m/s 742 mmHg 87%
    05:00 +16°C° 0 mm 2 m/s 742 mmHg 87%
    06:00 +18°C° 0 mm 2 m/s 742 mmHg 82%
    07:00 +20°C° 0 mm 2 m/s 742 mmHg 77%
    08:00 +22°C° 0 mm 3 m/s 742 mmHg 72%
    09:00 +24°C° 0 mm 3 m/s 742 mmHg 67%
    10:00 +26°C° 0 mm 4 m/s 742 mmHg 62%
    11:00 +27°C° 0 mm 4 m/s 742 mmHg 58%
    12:00 +28°C° 0 mm 4 m/s 742 mmHg 57%
    13:00 +28°C° 0 mm 5 m/s 741 mmHg 56%
    14:00 +28°C° 0 mm 5 m/s 741 mmHg 56%
    15:00 +28°C° 0 mm 5 m/s 741 mmHg 58%
    16:00 +27°C° 0 mm 5 m/s 741 mmHg 60%
    17:00 +27°C° 0 mm 5 m/s 741 mmHg 63%
    18:00 +23°C° 0 mm 5 m/s 740 mmHg 67%
    19:00 +21°C° 0 mm 4 m/s 740 mmHg 70%
    20:00 +19°C° 0 mm 4 m/s 740 mmHg 74%
    21:00 +18°C° 0 mm 4 m/s 740 mmHg 73%
    22:00 +18°C° 0 mm 4 m/s 740 mmHg 73%
    23:00 +17°C° 0 mm 4 m/s 740 mmHg 72%

    Demain, 28 Mai, Mardi

    Heure Température Précipitation Vent Pression Humidité
    00:00 +17°C° 0 mm 4 m/s 740 mmHg 73%
    01:00 +15°C° 0 mm 4 m/s 740 mmHg 73%
    02:00 +16°C° 0 mm 3 m/s 740 mmHg 74%
    03:00 +16°C° 0 mm 3 m/s 739 mmHg 75%
    04:00 +16°C° 0 mm 3 m/s 739 mmHg 76%
    05:00 +14°C° 0 mm 3 m/s 739 mmHg 77%
    06:00 +17°C° 0 mm 3 m/s 739 mmHg 73%
    07:00 +20°C° 0 mm 4 m/s 739 mmHg 68%
    08:00 +22°C° 0 mm 4 m/s 739 mmHg 64%
    09:00 +25°C° 0 mm 5 m/s 739 mmHg 60%
    10:00 +26°C° 0 mm 5 m/s 739 mmHg 55%
    11:00 +28°C° 0 mm 6 m/s 738 mmHg 51%
    12:00 +29°C° 0 mm 6 m/s 738 mmHg 50%
    13:00 +30°C° 0 mm 6 m/s 738 mmHg 48%
    14:00 +30°C° 0 mm 7 m/s 737 mmHg 47%
    15:00 +30°C° 0 mm 6 m/s 737 mmHg 50%
    16:00 +30°C° 0 mm 5 m/s 736 mmHg 54%
    17:00 +29°C° 0 mm 5 m/s 736 mmHg 57%
    18:00 +27°C° 0 mm 5 m/s 736 mmHg 57%
    19:00 +25°C° 0 mm 5 m/s 736 mmHg 57%
    20:00 +21°C° 0 mm 5 m/s 736 mmHg 57%
    21:00 +20°C° 0 mm 4 m/s 736 mmHg 58%
    22:00 +19°C° 0 mm 4 m/s 736 mmHg 60%
    23:00 +18°C° 0 mm 4 m/s 736 mmHg 61%

    Après-demain, 29 Mai, Mercredi

    Heure Température Précipitation Vent Pression Humidité
    00:00 +18°C° 0 mm 4 m/s 736 mmHg 63%
    01:00 +18°C° 0 mm 4 m/s 736 mmHg 65%
    02:00 +17°C° 0 mm 3 m/s 736 mmHg 67%
    03:00 +17°C° 0 mm 3 m/s 736 mmHg 70%
    04:00 +17°C° 0 mm 3 m/s 737 mmHg 73%
    05:00 +17°C° 0 mm 3 m/s 737 mmHg 77%
    06:00 +19°C° 0 mm 3 m/s 737 mmHg 75%
    07:00 +20°C° 0 mm 3 m/s 737 mmHg 73%
    08:00 +22°C° 0 mm 3 m/s 737 mmHg 72%
    09:00 +24°C° 0 mm 3 m/s 738 mmHg 66%
    10:00 +26°C° 0 mm 3 m/s 738 mmHg 61%
    11:00 +27°C° 0 mm 2 m/s 738 mmHg 56%
    12:00 +28°C° 0 mm 2 m/s 738 mmHg 54%
    13:00 +28°C° 0 mm 1 m/s 738 mmHg 52%
    14:00 +29°C° 0 mm 1 m/s 738 mmHg 50%
    15:00 +28°C° 0 mm 1 m/s 737 mmHg 52%
    16:00 +28°C° 0 mm 1 m/s 737 mmHg 55%
    17:00 +28°C° 0 mm 1 m/s 737 mmHg 58%
    18:00 +26°C° 0 mm 1 m/s 737 mmHg 61%
    19:00 +25°C° 0 mm 1 m/s 737 mmHg 64%
    20:00 +23°C° 0 mm 1 m/s 738 mmHg 67%
    21:00 +20°C° 0.1 mm 0 m/s 738 mmHg 72%
    22:00 +19°C° 0.1 mm 0 m/s 738 mmHg 76%
    23:00 +18°C° 0.1 mm 0 m/s 738 mmHg 80%

    30 Mai, Jeudi

    Heure Température Précipitation Vent Pression Humidité
    00:00 +18°C° 0 mm 0 m/s 739 mmHg 82%
    01:00 +18°C° 0 mm 0 m/s 739 mmHg 84%
    02:00 +19°C° 0 mm 1 m/s 739 mmHg 85%
    03:00 +19°C° 0 mm 1 m/s 739 mmHg 87%
    04:00 +19°C° 0 mm 1 m/s 739 mmHg 88%
    05:00 +18°C° 0 mm 1 m/s 739 mmHg 90%
    06:00 +20°C° 0 mm 1 m/s 739 mmHg 86%
    07:00 +20°C° 0 mm 2 m/s 739 mmHg 82%
    08:00 +23°C° 0 mm 2 m/s 739 mmHg 78%
    09:00 +24°C° 1.1 mm 2 m/s 739 mmHg 75%
    10:00 +25°C° 1.1 mm 2 m/s 739 mmHg 73%
    11:00 +26°C° 1.1 mm 2 m/s 739 mmHg 71%
    12:00 +26°C° 1.5 mm 2 m/s 739 mmHg 70%
    13:00 +26°C° 1.5 mm 2 m/s 739 mmHg 68%
    14:00 +26°C° 1.5 mm 2 m/s 739 mmHg 66%
    15:00 +26°C° 0.6 mm 1 m/s 738 mmHg 66%
    16:00 +26°C° 0.6 mm 1 m/s 738 mmHg 65%
    17:00 +24°C° 0.6 mm 0 m/s 738 mmHg 64%
    18:00 +23°C° 1.1 mm 0 m/s 738 mmHg 71%
    19:00 +21°C° 1.1 mm 0 m/s 738 mmHg 78%
    20:00 +21°C° 1.1 mm 1 m/s 738 mmHg 84%
    21:00 +18°C° 0.5 mm 0 m/s 738 mmHg 87%
    22:00 +18°C° 0.5 mm 0 m/s 738 mmHg 89%
    23:00 +17°C° 0.5 mm 0 m/s 739 mmHg 91%

    31 Mai, Vendredi

    Heure Température Précipitation Vent Pression Humidité
    00:00 +19°C° 0.3 mm 1 m/s 739 mmHg 93%
    01:00 +17°C° 0.3 mm 2 m/s 738 mmHg 95%
    02:00 +17°C° 0.3 mm 3 m/s 738 mmHg 97%
    03:00 +17°C° 0 mm 3 m/s 738 mmHg 96%
    04:00 +17°C° 0 mm 3 m/s 738 mmHg 96%
    05:00 +17°C° 0 mm 3 m/s 738 mmHg 96%
    06:00 +17°C° 0 mm 4 m/s 738 mmHg 94%
    07:00 +17°C° 0 mm 4 m/s 738 mmHg 92%
    08:00 +18°C° 0 mm 4 m/s 738 mmHg 90%
    09:00 +18°C° 0 mm 4 m/s 738 mmHg 87%
    10:00 +19°C° 0 mm 3 m/s 738 mmHg 84%
    11:00 +20°C° 0 mm 3 m/s 738 mmHg 81%
    12:00 +20°C° 0 mm 2 m/s 738 mmHg 78%
    13:00 +21°C° 0 mm 2 m/s 738 mmHg 76%
    14:00 +23°C° 0 mm 1 m/s 738 mmHg 73%
    15:00 +23°C° 0.3 mm 2 m/s 738 mmHg 74%
    16:00 +23°C° 0.3 mm 2 m/s 737 mmHg 75%
    17:00 +22°C° 0.3 mm 3 m/s 737 mmHg 75%
    18:00 +21°C° 0.2 mm 3 m/s 737 mmHg 82%
    19:00 +19°C° 0.2 mm 3 m/s 737 mmHg 88%
    20:00 +18°C° 0.2 mm 3 m/s 738 mmHg 95%
    21:00 +17°C° 0 mm 3 m/s 738 mmHg 95%
    22:00 +16°C° 0 mm 3 m/s 738 mmHg 95%
    23:00 +16°C° 0 mm 3 m/s 738 mmHg 96%

    1 Juin, Samedi

    Heure Température Précipitation Vent Pression Humidité
    00:00 +14°C° 0 mm 3 m/s 738 mmHg 96%
    01:00 +13°C° 0 mm 3 m/s 737 mmHg 96%
    02:00 +14°C° 0 mm 2 m/s 737 mmHg 96%
    03:00 +14°C° 0 mm 2 m/s 737 mmHg 96%
    04:00 +13°C° 0 mm 2 m/s 737 mmHg 95%
    05:00 +13°C° 0 mm 2 m/s 737 mmHg 95%
    06:00 +13°C° 0 mm 3 m/s 737 mmHg 91%
    07:00 +16°C° 0 mm 3 m/s 737 mmHg 86%
    08:00 +18°C° 0 mm 4 m/s 738 mmHg 82%
    09:00 +19°C° 0 mm 3 m/s 737 mmHg 77%
    10:00 +20°C° 0 mm 3 m/s 737 mmHg 72%
    11:00 +22°C° 0 mm 3 m/s 737 mmHg 68%
    12:00 +24°C° 0 mm 3 m/s 737 mmHg 65%
    13:00 +24°C° 0 mm 3 m/s 737 mmHg 63%
    14:00 +25°C° 0 mm 3 m/s 736 mmHg 61%
    15:00 +24°C° 1 mm 2 m/s 736 mmHg 65%
    16:00 +24°C° 1 mm 2 m/s 736 mmHg 69%
    17:00 +23°C° 1 mm 2 m/s 736 mmHg 73%
    18:00 +21°C° 0.8 mm 2 m/s 736 mmHg 79%
    19:00 +19°C° 0.8 mm 2 m/s 736 mmHg 84%
    20:00 +18°C° 0.8 mm 2 m/s 736 mmHg 89%
    21:00 +17°C° 0.3 mm 3 m/s 736 mmHg 91%
    22:00 +17°C° 0.3 mm 3 m/s 736 mmHg 92%
    23:00 +16°C° 0.3 mm 3 m/s 737 mmHg 94%
    Voir plus